Regional Weather Roundup
Issued by NWS Upton, NY

Current Version | Previous Version | Text Only | Print | Product List | Glossary On
Versions: 1 2 3 4 5 6 7 8 9 10 11 12 13 14 15 16 17 18 19 20 21 22 23 24 25 26 27 28 29 30 31 32 33 34 35 36 37 38 39 40 41 42 43 44 45 46 47 48 49 50
086 ASUS41 KOKX 262004 RWROKX REGIONAL WEATHER ROUNDUP NATIONAL WEATHER SERVICE NEW YORK NY 400 PM EDT THU MAY 26 2016 NOTE: "FAIR" INDICATES FEW OR NO CLOUDS BELOW 12,000 FEET WITH NO SIGNIFICANT WEATHER AND/OR OBSTRUCTIONS TO VISIBILITY. NYZ071-072-176-178-NJZ106-104-262100- NEW YORK CITY METRO AREA CITY SKY/WX TMP DP RH WIND PRES REMARKS CENTRAL PARK FAIR 87 52 29 VRB3 30.07S LAGUARDIA APRT PTSUNNY 89 58 34 S15G23 30.03F KENNEDY INTL PTSUNNY 80 50 34 S20 30.06F NEWARK/LIBERTY PTSUNNY 90 50 25 SE16 30.03S BRNX BOT. GARD N/A 86 54 32 SE6 30.06R TETERBORO FAIR 92 47 21 S14 30.01F $$ NYZ177-179-078>081-262100- LONG ISLAND NEW YORK CITY SKY/WX TMP DP RH WIND PRES REMARKS FARMINGDALE FAIR 84 53 34 SW13 30.06F ISLIP CLOUDY 83 52 34 S15 30.06S SHIRLEY FAIR 82 55 39 S10 30.07S RIVERHEAD N/A 86 59 39 CALM 30.05S WESTHAMPTON FAIR N/A N/A N/A SW12 30.09S EAST HAMPTON FAIR 76 57 52 S7 30.07S MONTAUK POINT N/A 75 57 53 S7 30.08S $$ NYZ052-065-067-262100- HUDSON VALLEY CITY SKY/WX TMP DP RH WIND PRES REMARKS WHITE PLAINS FAIR 86 53 32 S9 30.05S NEWBURGH MOSUNNY 86 54 32 CALM 30.04F MONTGOMERY FAIR 88 55 32 SW9 30.02F POUGHKEEPSIE FAIR 90 53 28 SW5 30.01F ALBANY PTSUNNY 86 54 33 VRB3 30.02F $$ NJZ001-105-106-008-010-013-015-019>022-104-262100- NEW JERSEY CITY SKY/WX TMP DP RH WIND PRES REMARKS NEWARK/LIBERTY PTSUNNY 90 50 25 SE16 30.03S TETERBORO FAIR 92 47 21 S14 30.01F CALDWELL FAIR 91 49 23 W9 30.03F MORRISTOWN MOSUNNY 90 50 25 SW7 30.04F SOMERVILLE FAIR 87 55 33 S7 30.02F SUSSEX FAIR 88 53 30 VRB7 30.04F ANDOVER N/A 87 52 29 VRB7 30.05F TRENTON FAIR 88 52 29 S9 30.04F MILLVILLE FAIR 86 53 32 S9 30.06F ATLANTIC CITY FAIR 86 50 28 S10 30.07S WRIGHTSTOWN FAIR 90 52 27 NW7 30.02S TOMS RIVER FAIR 90 45 20 S14G20 30.05F BELMAR FAIR 86 51 29 S12 30.07S $$ PAZ047>061-062-071-262100- EASTERN PENNSYLVANIA CITY SKY/WX TMP DP RH WIND PRES REMARKS PHILADELPHIA PTSUNNY 89 53 29 W8 30.05F ALLENTOWN FAIR 89 53 29 S10 30.04F SCRANTON FAIR 87 56 34 W12 30.04S $$ CTZ002-004>006-009-010-012-RIZ004-006-007-MAZ004-011-015-262100- SOUTHERN NEW ENGLAND IN CT CITY SKY/WX TMP DP RH WIND PRES REMARKS BRADLEY INTL CLOUDY 87 57 35 S9 30.02S HARTFORD FAIR 89 55 31 S6 30.02S DANBURY FAIR 87 48 25 SW6 30.05F WTRBRY/OXFORD PTSUNNY 84 54 34 S9 30.08S BRIDGEPORT FAIR 82 58 43 E7 30.04F MERIDEN FAIR 88 54 31 S10 30.04S NEW HAVEN FAIR 82 55 39 SE10 30.05S CHESTER FAIR 86 54 32 S10 30.07S GROTON FAIR 73 59 61 S7 30.05F WILLIMANTIC FAIR 89 54 30 S13 30.03S IN RI CITY SKY/WX TMP DP RH WIND PRES REMARKS PROVIDENCE PTSUNNY 82 57 42 SE8 30.04F BLOCK ISLAND FAIR 76 55 48 SW14 30.07F WESTERLY FAIR 83 52 34 S8 30.07R IN MA CITY SKY/WX TMP DP RH WIND PRES REMARKS BOSTON PTSUNNY 69 56 62 E10 30.05S WORCESTER FAIR 84 50 30 SW12 30.07S WESTFIELD CLOUDY 85 56 37 SE7 30.02S PROVINCETOWN FAIR 77 58 51 SE9 30.07F NANTUCKET FAIR 73 55 53 S6 30.08F $$ ANZ330-335-338-340-345-350-353-355-262100- COASTAL MARINE OBSERVATIONS STATION/POSITION TIME SKY/WX TEMP WIND PRES VSBY WAVE AIR SEA DIR/SP/G HT/PER (UTC) (F) (DEG/KT/KT) (MB) (MI) (FT/S) NY HARB ENTRANCE 1850 67 62 180/ 12/ 12 1017.6 2/ 7 20S FIRE ISLAND 1850 63 60 200/ 10/ 12 1018.1 2/ 8 GREAT SOUTH BAY 1900 69 69 250/ 6/ 8 N/A 23 SSW MONTAUK P 1950 62 58 220/ 8/ 10 1018.1 2/ 6 15 E BARNEGAT LI 1922 59 N/A 2/ 7 HUDSON CANYON 1850 60 57 1019.4 2/ 9 KINGS POINT 1900 76 59 1017.2 EXECUTION ROCKS NOT AVBL CENTRAL LI SOUND 1900 67 90/ 6/ 6 N/A 0 EASTERN LI SOUND 1900 65 53 150/ 2/ 4 N/A ROBBINS REEF 1900 80 160/ 18/ 19 1016.6 $$ >>>>>>>>>>>>>>>>>>>>>>>>>>>> KEY <<<<<<<<<<<<<<<<<<<<<<<<<<< > < > SKY/WX - SKY CONDITION/PRESENT WEATHER < > TMP - TEMPERATURE IN FAHRENHEIT < > DP - DEWPOINT IN FAHRENHEIT < > RH - RELATIVE HUMIDITY IN PERCENT < > WIND - DIRECTION AND SPEED IN MPH < > PRES - MEAN SEA LEVEL PRESSURE IN INCHES OF HG < > WCI - WIND CHILL INDEX < > VSB - VISIBILITY IN MILES < > HX - HEAT INDEX < > TC - TEMPERATURE IN CELSIUS < > VRB - VARIABLE WIND DIRECTION < > < >>>>>>>>>>>>>>>>>>>>>>>>>>>> KEY <<<<<<<<<<<<<<<<<<<<<<<<<<<

USA.gov is the U.S. government's official web portal to all federal, state and local government web resources and services.